STARLINK-1202, 45183

Orbit data source: Space-Track

STARLINK-1202, 45183 is a payload satellite owned by SpaceX/Seattle (US) in LEO that was launched on Mon, 17 Feb 2020 UTC via an FALCON 9 launch vehicle from the Air Force Eastern Test Range (AFETR). Payload-class satellites include a variety of spacecraft equipped with specific instruments for various scientific and technological missions. These include communications satellites like Starlink; space stations such as the ISS; scientific satellites like the Hubble; Earth observation satellites from companies like Planet Labs, Umbra, and HawkEye 360; GPS; miniature CubeSats for education and research; and military/defense satellites.

Loading next visibility...
Identifier
45183, 2020-012F
Orbit
LEO
Country
Flag of USUS
Related business
Manufacturer
SpaceX/Seattle
Mission
Partially operational Commercial Communications
Bus & Motor
STARLINK, Unknown motor
Mass
260 kg wet, ~248 kg dry
Launch date (UTC)
2020-02-17 (7 years ago)
Launch vehicle
FALCON 9
Launch site
Air Force Eastern Test Range (AFETR)
Object type
Payload
Rocket body
Debris
Shape & HBR
Box + 1 Pan, 10.1 m
Radar Cross Section
13.562 m², Large (>1 m²)

Expand to show TLE details & history
Last TLE update: 6 hours ago

TLE from 6 hours ago
0 STARLINK-1202
1 45183U 20012F   26253.96986429  .00045024  00000-0  10250-2 0  9992
2 45183  53.1505 252.0026 0002047  76.5852 283.5382 15.42535997363413
Epoch: 2026-09-10T23:16Z
TLE epoch observation values (Epoch: 2026-09-10T23:16:36.274Z)
Latitude
-0.00004°
Longitude
-87.14851°
Altitude
439.205 km
Speed
7.65 km/s
True Right ascension
16h 48m 00s
True Declination
0° 00' 00"
Sunlit
Object was in daylight at epoch
Visualization orbit readout
Latitude
Unknown
Longitude
Unknown
Altitude
Unknown
Speed
Unknown
Apparent Right ascension
Unknown
Apparent Declination
Unknown
Sunlit
N/A
Visualization observer readout
Local Sidereal Time
21:27:07
Azimuth
Unknown
Elevation
Unknown
Doppler factor
Unknown
Orbital elements
Apogee altitude
440.282 km
Perigee altitude
437.492 km
Semi-major axis
6,817.024 km
Eccentricity
0.0002
Inclination
53.1505°
RAAN
252.0026°
Arg. of periapsis
76.5852°
True anomaly
283.51539°
Mean anomaly
283.5382°
Eccentric anomaly
283.5268°
Mean motion
3.85612 °/min
Orbital period
93.36 mins
BSTAR
0.001025
Loading maneuver chart data...
Computing Atmospheric mass density...

Documentation

Showing up to 5 results
|